[[{"header":{"parameterUnit":"m.s-1","parameterCategory":1,"la1":30.2991,"la2":30.254,"lo1":-89.0895,"lo2":-89.0444,"dy":0.0017,"dx":0.0017,"nx":28,"ny":28,"refTime":"2024-05-20T03:00:00:Z","depth":0,"parameterNumber":2,"parameterNumberName":"U-component_of_WINDS"},"data":[0,0,0,0,0,0,0,0,0,0,0,0,0,0,0,0,0,0,0,0,0,0,0,0,0,0,0,0,0,0,0,0,0,0,0,0,0,0,0,0,0,0,0,0,0,0,0,0,0,0,0,0,0,0,0,0,0,0,-2.4544,-2.4543,0,-2.4484,-2.4483,-2.4482,-2.4419,-2.4418,-2.4418,-2.4417,-2.4353,-2.4352,-2.4351,0,0,0,0,0,0,0,0,0,0,0,0,0,-2.4604,-2.4603,-2.4544,-2.4543,-2.4543,-2.4484,-2.4483,-2.4482,-2.4419,-2.4418,-2.4417,-2.4416,-2.4353,-2.4352,-2.4351,0,0,0,0,0,0,0,0,0,0,0,0,0,-2.4564,-2.4603,-2.4544,-2.4504,-2.45,-2.4484,-2.4483,-2.4482,-2.442,-2.4418,-2.4417,-2.4416,-2.4353,-2.4352,-2.4351,-2.4368,0,0,-2.4346,-2.4346,0,0,0,0,0,0,0,0,-2.4567,-2.4562,-2.4511,-2.4507,-2.4502,-2.4458,-2.4481,-2.4444,-2.442,-2.445,-2.4417,-2.4415,-2.4388,-2.4384,-2.4376,-2.4365,-2.4362,-2.4346,-2.4345,-2.4345,-2.4344,0,0,0,0,0,0,0,-2.457,-2.4564,-2.452,-2.451,-2.4505,-2.4489,-2.4482,-2.4473,-2.4427,-2.4447,-2.4443,-2.4437,-2.4386,-2.4377,-2.4374,-2.4361,-2.4346,-2.4345,-2.4344,-2.4344,-2.4364,-2.4365,0,0,0,0,0,0,-2.4579,-2.4567,-2.4522,-2.4518,-2.4532,-2.4489,-2.4481,-2.4473,-2.4427,-2.4419,-2.4438,-2.4434,-2.438,-2.4375,-2.4371,-2.4388,-2.4345,-2.4344,-2.4343,-2.4362,-2.4364,-2.4365,0,0,0,0,0,0,-2.458,-2.4575,-2.4524,-2.4541,-2.4534,-2.4489,-2.4481,-2.4473,-2.4464,-2.442,-2.4411,-2.4437,-2.4379,-2.4373,-2.437,-2.4385,-2.4343,-2.4342,-2.4361,-2.4363,-2.4365,-2.4424,0,0,0,0,0,0,-2.4582,-2.4576,-2.4582,-2.4542,-2.4533,-2.4524,-2.4482,-2.4473,-2.4462,-2.4456,-2.4417,-2.4409,-2.4377,-2.4372,-2.4368,-2.4383,-2.4341,-2.4359,-2.4362,-2.4364,-2.442,-2.4428,-2.4434,0,0,0,0,0,-2.4584,-2.46,-2.4583,-2.4578,-2.454,-2.4525,-2.452,-2.4484,-2.4464,-2.4469,-2.4442,-2.4411,-2.4385,-2.4372,-2.4368,-2.4382,-2.4358,-2.4361,-2.4364,-2.4417,-2.4426,-2.4434,0,0,0,0,0,0,-2.4642,-2.4594,-2.4574,-2.4578,-2.4556,-2.4515,-2.452,-2.4494,-2.4477,-2.4472,-2.4428,-2.4419,-2.4421,-2.4401,-2.4388,-2.4397,-2.4367,-2.4369,-2.4409,-2.4418,-2.4424,-2.4428,-2.434,0,0,0,0,0,-2.4655,-2.4648,-2.4607,-2.4614,-2.4604,-2.4565,-2.4557,-2.4531,-2.4507,-2.4497,-2.4468,-2.4445,-2.4432,-2.4424,-2.441,-2.4418,-2.4409,-2.4426,-2.4433,-2.4439,-2.444,-2.4444,-2.4451,-2.4375,-2.4375,-2.4375,0,0,-2.4682,-2.4655,-2.4653,-2.4625,-2.4605,-2.4598,-2.4557,-2.4551,-2.4545,-2.4495,-2.449,-2.447,-2.4441,-2.4444,-2.4444,-2.4428,-2.446,-2.4443,-2.4448,-2.4446,-2.4448,-2.4455,-2.4461,-2.4377,-2.4377,-2.4377,0,0,-2.4727,-2.4707,-2.471,-2.4692,-2.4664,-2.4638,-2.4639,-2.4602,-2.4587,-2.4582,-2.4544,-2.4537,-2.4515,-2.4497,-2.4484,-2.4526,-2.4497,-2.4523,-2.4558,-2.4562,-2.4568,-2.4573,-2.4587,-2.4592,-2.4525,-2.4526,-2.4526,0,-2.4763,-2.4752,-2.4715,-2.4712,-2.4701,-2.4658,-2.4661,-2.4645,-2.4613,-2.4606,-2.4589,-2.4562,-2.454,-2.4538,-2.4549,-2.4541,-2.454,-2.4526,-2.457,-2.4575,-2.4579,-2.4591,-2.4597,-2.4529,-2.4528,-2.4528,-2.4528,0,-2.4798,-2.4791,-2.4797,-2.4769,-2.4759,-2.4759,-2.4723,-2.4717,-2.4693,-2.4669,-2.4665,-2.4638,-2.4617,-2.4616,-2.4592,-2.4611,-2.4602,-2.4578,-2.4547,-2.459,-2.4601,-2.4606,-2.4533,-2.4532,-2.4531,-2.453,0,0,-2.4873,-2.4827,-2.483,-2.4817,-2.4784,-2.4777,-2.4777,-2.4758,-2.4753,-2.4734,-2.4731,-2.4716,-2.4695,-2.4681,-2.4655,-2.4659,-2.4693,-2.4635,-2.4633,-2.4645,-2.4712,-2.4729,-2.4735,-2.4675,-2.4676,-2.4677,-2.4714,0,-2.4911,-2.4906,-2.4875,-2.488,-2.4873,-2.4834,-2.4833,-2.4813,-2.4791,-2.4782,-2.4759,-2.4748,-2.4721,-2.4712,-2.4715,-2.4689,-2.4706,-2.4686,-2.4671,-2.4671,-2.4677,-2.4741,-2.4758,-2.4795,-2.4719,-2.4719,-2.472,0,-2.4953,-2.4938,-2.4942,-2.4911,-2.4906,-2.4906,-2.4887,-2.488,-2.4856,-2.4841,-2.4827,-2.4799,-2.4796,-2.4769,-2.4764,-2.4751,-2.4744,-2.4731,-2.4732,-2.4727,-2.4696,-2.4736,-2.4805,-2.481,-2.4727,-2.4726,-2.4726,0,-2.5006,-2.4987,-2.4987,-2.4977,-2.4941,-2.4942,-2.4927,-2.4902,-2.4894,-2.4878,-2.4871,-2.4855,-2.4846,-2.4834,-2.4802,-2.4786,-2.4801,-2.4771,-2.4787,-2.4788,-2.4789,-2.4789,-2.4856,-2.4789,-2.4789,-2.4789,-2.4788,0,-2.505,-2.5054,-2.5011,-2.501,-2.5014,-2.4979,-2.4983,-2.4964,-2.4944,-2.4939,-2.4905,-2.4902,-2.4861,-2.4853,-2.4829,-2.4828,-2.4825,-2.4811,-2.4804,-2.4813,-2.4815,-2.4806,-2.4801,-2.479,-2.479,-2.4789,-2.4789,0,-2.5109,-2.508,-2.5077,-2.5044,-2.5036,-2.504,-2.5012,-2.501,-2.4989,-2.4983,-2.498,-2.4945,-2.4934,-2.4903,-2.4883,-2.4867,-2.4873,-2.4861,-2.4881,-2.4876,-2.4893,-2.4891,-2.4955,-2.4961,-2.4892,-2.4893,-2.4893,0,-2.5137,-2.514,-2.5108,-2.5103,-2.509,-2.5082,-2.5074,-2.504,-2.5033,-2.5008,-2.501,-2.4997,-2.4984,-2.4969,-2.4941,-2.4927,-2.4913,-2.4937,-2.491,-2.4919,-2.4912,-2.4911,-2.4911,-2.4941,-2.4942,-2.4943,-2.4944,0,-2.5191,-2.5178,-2.5167,-2.5153,-2.5144,-2.513,-2.5115,-2.5113,-2.5076,-2.5069,-2.5058,-2.5049,-2.503,-2.5017,-2.4999,-2.4983,-2.4957,-2.4953,-2.4955,-2.4963,-2.4974,-2.4967,-2.4894,-2.4951,-2.495,-2.4949,-2.4949,-2.4949,-2.5234,-2.5235,-2.5213,-2.5203,-2.5189,-2.5175,-2.5173,-2.5152,-2.5142,-2.5125,-2.5106,-2.5098,-2.5076,-2.5049,-2.5036,-2.5028,-2.5014,-2.5018,-2.5019,-2.502,-2.5024,-2.4978,-2.5025,-2.5025,-2.5025,-2.5024,-2.5024,0,-2.5285,-2.527,-2.5262,-2.5242,-2.5234,-2.5213,-2.5195,-2.519,-2.5183,-2.5166,-2.5155,-2.5143,-2.5131,-2.5105,-2.509,-2.509,-2.5077,-2.5087,-2.5085,-2.5082,-2.5038,-2.5036,-2.5097,-2.5097,-2.5097,-2.5097,-2.5097,-2.5097,-2.5311,-2.531,-2.5295,-2.5288,-2.5272,-2.5264,-2.5256,-2.5244,-2.523,-2.5218,-2.5209,-2.5192,-2.5171,-2.5156,-2.5144,-2.5136,-2.5132,-2.5145,-2.5134,-2.5092,-2.5085,-2.5078,-2.5076,-2.5145,-2.5145,-2.5178,-2.5179,-2.5179]},{"header":{"parameterUnit":"m.s-1","parameterCategory":1,"la1":30.2991,"la2":30.254,"lo1":-89.0895,"lo2":-89.0444,"dy":0.0017,"dx":0.0017,"nx":28,"ny":28,"refTime":"2024-05-20T03:00:00:Z","depth":0,"parameterNumber":3,"parameterNumberName":"V-component_of_WINDS"},"data":[0,0,0,0,0,0,0,0,0,0,0,0,0,0,0,0,0,0,0,0,0,0,0,0,0,0,0,0,0,0,0,0,0,0,0,0,0,0,0,0,0,0,0,0,0,0,0,0,0,0,0,0,0,0,0,0,0,0,3.1138,3.1138,0,3.1165,3.1165,3.1166,3.123,3.1232,3.1233,3.1234,3.1257,3.1256,3.1256,0,0,0,0,0,0,0,0,0,0,0,0,0,3.114,3.1139,3.1138,3.1138,3.1139,3.1165,3.1165,3.1166,3.123,3.1232,3.1233,3.1235,3.1257,3.1256,3.1256,0,0,0,0,0,0,0,0,0,0,0,0,0,3.115,3.1139,3.1138,3.1174,3.1178,3.1165,3.1165,3.1166,3.123,3.1232,3.1234,3.1236,3.1257,3.1257,3.1256,3.1208,0,0,3.1252,3.1252,0,0,0,0,0,0,0,0,3.1149,3.115,3.1169,3.1172,3.1176,3.1197,3.1174,3.118,3.1229,3.121,3.1234,3.1237,3.1235,3.1236,3.1236,3.1209,3.121,3.1252,3.1252,3.1251,3.1251,0,0,0,0,0,0,0,3.1148,3.1149,3.1149,3.1169,3.1173,3.1188,3.1192,3.1176,3.121,3.1212,3.1216,3.1219,3.1237,3.1237,3.1237,3.1211,3.1252,3.1251,3.1251,3.125,3.1147,3.1145,0,0,0,0,0,0,3.1143,3.1148,3.1148,3.1149,3.1167,3.1186,3.1191,3.1188,3.1211,3.1216,3.1217,3.1222,3.1238,3.1238,3.1238,3.1185,3.1251,3.125,3.125,3.1149,3.1147,3.1145,0,0,0,0,0,0,3.1143,3.1142,3.1147,3.115,3.1152,3.1184,3.118,3.1187,3.1187,3.1215,3.1221,3.1211,3.1239,3.124,3.1216,3.1187,3.125,3.1249,3.1152,3.1149,3.1146,3.1078,0,0,0,0,0,0,3.1143,3.1142,3.1125,3.1149,3.1151,3.1125,3.1179,3.1186,3.1186,3.1192,3.1211,3.1216,3.1241,3.1217,3.1215,3.1187,3.1248,3.1155,3.1151,3.1147,3.1083,3.1073,3.1065,0,0,0,0,0,3.1142,3.1104,3.1124,3.1123,3.1131,3.1123,3.1124,3.1155,3.1183,3.1166,3.1184,3.1215,3.1191,3.1214,3.1212,3.1183,3.1157,3.1152,3.1147,3.1087,3.1075,3.1065,0,0,0,0,0,0,3.1073,3.1107,3.113,3.1098,3.1107,3.1134,3.1113,3.1141,3.1141,3.1147,3.1184,3.1188,3.1159,3.1169,3.1194,3.1139,3.1179,3.1173,3.1134,3.1123,3.1113,3.1111,3.1247,0,0,0,0,0,3.1054,3.1046,3.1076,3.1045,3.1049,3.108,3.1077,3.1101,3.1111,3.1115,3.1131,3.1139,3.1133,3.1128,3.1125,3.1085,3.109,3.1064,3.1055,3.1047,3.1042,3.1023,3.1012,3.1129,3.1129,3.1129,0,0,3.1015,3.1033,3.1025,3.1031,3.1041,3.1031,3.1082,3.1069,3.1062,3.1112,3.1092,3.1104,3.1115,3.1083,3.107,3.1091,3.1011,3.1041,3.1035,3.1034,3.1017,3.1006,3.0996,3.1126,3.1126,3.1127,0,0,3.0938,3.0951,3.0927,3.0936,3.0951,3.0973,3.0967,3.099,3.1,3.098,3.1019,3.101,3.0999,3.1006,3.1007,3.0935,3.0964,3.0933,3.0884,3.0864,3.0855,3.0847,3.0822,3.0812,3.0927,3.0927,3.0927,0,3.0887,3.0874,3.091,3.0896,3.0897,3.0945,3.0921,3.0928,3.094,3.0939,3.0963,3.0951,3.0962,3.0933,3.0916,3.0915,3.091,3.093,3.0854,3.0846,3.0839,3.0815,3.0806,3.0923,3.0924,3.0924,3.0924,0,3.0811,3.0801,3.078,3.0793,3.0793,3.0773,3.0805,3.08,3.0824,3.0843,3.0822,3.0837,3.0837,3.0832,3.0855,3.0807,3.0819,3.0847,3.0888,3.0824,3.0802,3.0793,3.0918,3.0919,3.092,3.0921,0,0,3.069,3.0725,3.0716,3.0723,3.0744,3.0737,3.0719,3.0722,3.0717,3.0724,3.071,3.07,3.0727,3.073,3.0753,3.0736,3.0679,3.0767,3.0768,3.075,3.0627,3.0606,3.0595,3.0698,3.0696,3.0695,3.0627,0,3.0618,3.0592,3.0625,3.059,3.0583,3.0628,3.0613,3.0624,3.0641,3.0636,3.0654,3.0647,3.0683,3.0685,3.067,3.0689,3.0654,3.0694,3.0685,3.0684,3.0681,3.0584,3.0561,3.0495,3.0618,3.0617,3.0616,0,3.0531,3.0536,3.0502,3.0526,3.0524,3.051,3.0515,3.051,3.0523,3.0537,3.054,3.0569,3.0553,3.0593,3.0571,3.0597,3.0595,3.0604,3.0602,3.0602,3.0646,3.0581,3.0475,3.0465,3.0603,3.0604,3.0605,0,3.0447,3.0445,3.0425,3.0429,3.0457,3.0446,3.0457,3.0472,3.0472,3.0476,3.0476,3.0478,3.0479,3.0479,3.0507,3.0534,3.0482,3.0524,3.0493,3.0492,3.0479,3.048,3.0371,3.0478,3.0478,3.0478,3.0478,0,3.0364,3.0341,3.0388,3.0375,3.0351,3.0389,3.0363,3.0379,3.0392,3.0383,3.0422,3.0412,3.045,3.0444,3.0466,3.0445,3.0445,3.0455,3.0461,3.0452,3.045,3.0451,3.0456,3.0476,3.0476,3.0477,3.0477,0,3.0266,3.0296,3.0277,3.0306,3.0312,3.0293,3.0317,3.0306,3.0327,3.0314,3.0314,3.0345,3.034,3.0369,3.0369,3.0384,3.0352,3.0365,3.0348,3.0352,3.0319,3.0322,3.0207,3.0194,3.0309,3.0307,3.0307,0,3.021,3.0194,3.0222,3.0219,3.0229,3.0223,3.0224,3.0261,3.0259,3.0274,3.0261,3.026,3.0261,3.0251,3.0273,3.0273,3.0287,3.0247,3.0287,3.0279,3.0287,3.0288,3.0286,3.0238,3.0237,3.0236,3.0235,0,3.0109,3.0126,3.0126,3.0132,3.0132,3.0137,3.0145,3.0141,3.018,3.0177,3.0173,3.0174,3.0175,3.0173,3.0178,3.0188,3.0218,3.0222,3.0215,3.0205,3.0196,3.0201,3.0325,3.0225,3.0226,3.0226,3.0227,3.0227,3.0032,3.002,3.0038,3.0037,3.0047,3.0054,3.0046,3.0066,3.0065,3.0069,3.0091,3.0083,3.0097,3.0108,3.0115,3.0109,3.0128,3.0118,3.0115,3.0112,3.0106,3.0197,3.011,3.011,3.0111,3.0111,3.0111,0,2.9933,2.9948,2.9946,2.9958,2.9957,2.9987,2.9997,2.9994,2.9988,2.9999,3.0,2.9996,2.9995,3.0018,3.0019,3.001,3.0024,3.0009,3.001,3.0012,3.0089,3.0095,2.9999,2.9999,2.9999,2.9999,2.9999,2.9999,2.9882,2.9864,2.9883,2.987,2.9884,2.9879,2.9883,2.9889,2.9899,2.9893,2.9893,2.9909,2.9924,2.9928,2.9928,2.9934,2.9933,2.9914,2.9925,2.9996,3.0007,3.0017,3.0023,2.9913,2.9913,2.9849,2.9849,2.9848]}]]